Time,TemperatureF,DewpointF,PressureIn,WindDirection,WindDirectionDegrees,WindSpeedMPH,WindSpeedGustMPH,Humidity,HourlyPrecipIn,Conditions,Clouds,dailyrainin,SoftwareType,DateUTC
2013-04-15 00:01:00,70.8,65.0,29.54,South,169,0.0,6.0,82,0.00,,,0.00,WeatherCatV1.02B3,2013-04-15 05:01:00,
2013-04-15 00:06:00,70.7,65.3,29.54,SSE,159,5.0,7.0,83,0.00,,,0.00,WeatherCatV1.02B3,2013-04-15 05:06:00,
2013-04-15 00:11:00,70.7,65.3,29.54,South,189,9.0,10.0,83,0.00,,,0.00,WeatherCatV1.02B3,2013-04-15 05:11:00,
2013-04-15 00:16:00,70.8,65.4,29.54,SE,144,5.0,15.0,83,0.00,,,0.00,WeatherCatV1.02B3,2013-04-15 05:16:00,
2013-04-15 00:21:00,70.8,65.0,29.54,South,179,4.0,11.0,82,0.00,,,0.00,WeatherCatV1.02B3,2013-04-15 05:21:00,
2013-04-15 00:26:00,70.7,65.3,29.54,SE,132,4.0,14.0,83,0.00,,,0.00,WeatherCatV1.02B3,2013-04-15 05:26:00,
2013-04-15 00:31:00,70.6,65.2,29.54,SE,142,2.0,6.0,83,0.00,,,0.00,WeatherCatV1.02B3,2013-04-15 05:31:00,
2013-04-15 00:36:00,70.5,65.1,29.54,SSE,167,3.0,14.0,83,0.00,,,0.00,WeatherCatV1.02B3,2013-04-15 05:36:00,
2013-04-15 00:41:00,70.4,65.0,29.54,South,169,3.0,6.0,83,0.00,,,0.00,WeatherCatV1.02B3,2013-04-15 05:41:00,
2013-04-15 00:46:00,70.3,64.9,29.54,South,184,4.0,13.0,83,0.00,,,0.00,WeatherCatV1.02B3,2013-04-15 05:46:00,
2013-04-15 00:51:00,70.3,64.9,29.54,South,180,7.0,10.0,83,0.00,,,0.00,WeatherCatV1.02B3,2013-04-15 05:51:00,
2013-04-15 00:56:00,70.2,64.8,29.54,SE,124,1.0,7.0,83,0.00,,,0.00,WeatherCatV1.02B3,2013-04-15 05:56:00,
2013-04-15 01:01:00,70.1,65.0,29.54,SSE,161,5.0,11.0,84,0.00,,,0.00,WeatherCatV1.02B3,2013-04-15 06:01:00,
2013-04-15 01:06:00,70.0,64.9,29.54,SSW,194,6.0,9.0,84,0.00,,,0.00,WeatherCatV1.02B3,2013-04-15 06:06:00,
2013-04-15 01:11:00,69.8,64.7,29.54,SE,140,2.0,7.0,84,0.00,,,0.00,WeatherCatV1.02B3,2013-04-15 06:11:00,
2013-04-15 01:16:00,69.6,64.5,29.54,South,188,4.0,7.0,84,0.00,,,0.00,WeatherCatV1.02B3,2013-04-15 06:16:00,
2013-04-15 01:21:00,69.5,64.8,29.54,SSE,152,4.0,9.0,85,0.00,,,0.00,WeatherCatV1.02B3,2013-04-15 06:21:00,
2013-04-15 01:26:00,69.3,64.6,29.54,SSW,196,5.0,6.0,85,0.00,,,0.00,WeatherCatV1.02B3,2013-04-15 06:26:00,
2013-04-15 01:31:00,69.2,64.8,29.54,SE,142,3.0,4.0,86,0.00,,,0.00,WeatherCatV1.02B3,2013-04-15 06:31:00,
2013-04-15 01:36:00,69.1,64.7,29.54,SSE,158,3.0,9.0,86,0.00,,,0.00,WeatherCatV1.02B3,2013-04-15 06:36:00,
2013-04-15 01:41:00,69.0,64.6,29.54,SSE,167,0.0,6.0,86,0.00,,,0.00,WeatherCatV1.02B3,2013-04-15 06:41:00,
2013-04-15 01:46:00,68.8,64.4,29.54,South,175,0.0,7.0,86,0.00,,,0.00,WeatherCatV1.02B3,2013-04-15 06:46:00,
2013-04-15 01:51:00,68.8,64.8,29.54,SSE,151,4.0,8.0,87,0.00,,,0.00,WeatherCatV1.02B3,2013-04-15 06:51:00,
2013-04-15 01:56:00,68.7,64.7,29.54,SSE,161,5.0,10.0,87,0.00,,,0.00,WeatherCatV1.02B3,2013-04-15 06:56:00,
2013-04-15 02:01:00,68.6,64.6,29.54,South,184,3.0,15.0,87,0.00,,,0.00,WeatherCatV1.02B3,2013-04-15 07:01:00,
2013-04-15 02:05:00,68.5,64.8,29.54,SSE,167,5.0,7.0,88,0.00,,,0.00,WeatherCatV1.02B3,2013-04-15 07:05:00,
2013-04-15 02:10:00,68.4,64.7,29.54,SSE,164,4.0,10.0,88,0.00,,,0.00,WeatherCatV1.02B3,2013-04-15 07:10:00,
2013-04-15 02:15:00,68.4,64.7,29.54,SSE,164,4.0,9.0,88,0.00,,,0.00,WeatherCatV1.02B3,2013-04-15 07:15:00,
2013-04-15 02:20:00,68.3,64.6,29.54,SSE,164,3.0,11.0,88,0.00,,,0.00,WeatherCatV1.02B3,2013-04-15 07:20:00,
2013-04-15 02:25:00,68.2,64.8,29.54,SSE,168,4.0,7.0,89,0.00,,,0.00,WeatherCatV1.02B3,2013-04-15 07:25:00,
2013-04-15 02:30:00,68.1,64.7,29.54,South,169,4.0,5.0,89,0.00,,,0.00,WeatherCatV1.02B3,2013-04-15 07:30:00,
2013-04-15 02:43:00,68.0,64.6,29.54,SSE,165,4.0,6.0,89,0.00,,,0.00,WeatherCatV1.02B3,2013-04-15 07:43:00,
2013-04-15 02:45:00,67.9,64.9,29.54,SSE,159,2.0,9.0,90,0.00,,,0.00,WeatherCatV1.02B3,2013-04-15 07:45:00,
2013-04-15 02:48:00,67.9,64.9,29.54,SSE,164,2.0,7.0,90,0.00,,,0.00,WeatherCatV1.02B3,2013-04-15 07:48:00,
2013-04-15 02:51:00,67.8,64.8,29.54,ENE,63,1.0,4.0,90,0.00,,,0.00,WeatherCatV1.02B3,2013-04-15 07:51:00,
2013-04-15 02:56:00,67.7,65.0,29.54,SSE,160,3.0,4.0,91,0.00,,,0.00,WeatherCatV1.02B3,2013-04-15 07:56:00,
2013-04-15 03:01:00,67.7,65.0,29.54,SSE,167,7.0,11.0,91,0.00,,,0.00,WeatherCatV1.02B3,2013-04-15 08:01:00,
2013-04-15 03:06:00,67.6,65.2,29.54,SSE,148,0.0,5.0,92,0.00,,,0.00,WeatherCatV1.02B3,2013-04-15 08:06:00,
2013-04-15 03:11:00,67.6,64.9,29.54,SSE,157,3.0,10.0,91,0.00,,,0.00,WeatherCatV1.02B3,2013-04-15 08:11:00,
2013-04-15 03:16:00,67.6,64.9,29.54,SSE,167,7.0,7.0,91,0.00,,,0.00,WeatherCatV1.02B3,2013-04-15 08:16:00,
2013-04-15 03:21:00,67.5,65.1,29.54,South,190,0.0,5.0,92,0.00,,,0.00,WeatherCatV1.02B3,2013-04-15 08:21:00,
2013-04-15 03:26:00,67.5,65.1,29.54,SSE,162,6.0,9.0,92,0.00,,,0.00,WeatherCatV1.02B3,2013-04-15 08:26:00,
2013-04-15 03:31:00,67.5,65.1,29.54,SSW,200,4.0,11.0,92,0.00,,,0.00,WeatherCatV1.02B3,2013-04-15 08:31:00,
2013-04-15 03:36:00,67.5,65.1,29.54,SSW,200,0.0,9.0,92,0.00,,,0.00,WeatherCatV1.02B3,2013-04-15 08:36:00,
2013-04-15 03:40:00,67.4,65.0,29.54,South,174,7.0,7.0,92,0.00,,,0.00,WeatherCatV1.02B3,2013-04-15 08:40:00,
2013-04-15 03:41:00,67.4,65.0,29.54,South,180,7.0,7.0,92,0.00,,,0.00,WeatherCatV1.02B3,2013-04-15 08:41:00,
2013-04-15 03:46:00,67.4,65.3,29.54,SSE,162,2.0,7.0,93,0.00,,,0.00,WeatherCatV1.02B3,2013-04-15 08:46:00,
2013-04-15 03:51:00,67.4,65.3,29.54,South,177,4.0,10.0,93,0.00,,,0.00,WeatherCatV1.02B3,2013-04-15 08:51:00,
2013-04-15 03:56:00,67.2,65.1,29.54,SSW,194,0.0,5.0,93,0.00,,,0.00,WeatherCatV1.02B3,2013-04-15 08:56:00,
2013-04-15 04:01:00,67.2,65.1,29.54,SSE,166,6.0,10.0,93,0.00,,,0.00,WeatherCatV1.02B3,2013-04-15 09:01:00,
2013-04-15 04:06:00,67.2,65.1,29.54,South,174,4.0,5.0,93,0.00,,,0.00,WeatherCatV1.02B3,2013-04-15 09:06:00,
2013-04-15 04:11:00,67.2,65.1,29.54,SSE,154,3.0,11.0,93,0.00,,,0.00,WeatherCatV1.02B3,2013-04-15 09:11:00,
2013-04-15 04:16:00,67.2,65.4,29.55,South,184,4.0,6.0,94,0.00,,,0.00,WeatherCatV1.02B3,2013-04-15 09:16:00,
2013-04-15 04:21:00,67.3,65.5,29.55,South,177,2.0,9.0,94,0.00,,,0.00,WeatherCatV1.02B3,2013-04-15 09:21:00,
2013-04-15 04:26:00,67.4,65.6,29.55,South,176,6.0,9.0,94,0.00,,,0.00,WeatherCatV1.02B3,2013-04-15 09:26:00,
2013-04-15 04:31:00,67.6,65.8,29.55,South,182,2.0,5.0,94,0.00,,,0.00,WeatherCatV1.02B3,2013-04-15 09:31:00,
2013-04-15 04:36:00,67.7,65.9,29.55,South,175,1.0,7.0,94,0.00,,,0.00,WeatherCatV1.02B3,2013-04-15 09:36:00,
2013-04-15 04:41:00,67.8,66.0,29.55,SSW,200,4.0,11.0,94,0.00,,,0.00,WeatherCatV1.02B3,2013-04-15 09:41:00,
2013-04-15 04:46:00,67.9,66.1,29.56,South,174,2.0,7.0,94,0.00,,,0.00,WeatherCatV1.02B3,2013-04-15 09:46:00,
2013-04-15 04:51:00,68.0,66.2,29.56,South,190,3.0,5.0,94,0.00,,,0.00,WeatherCatV1.02B3,2013-04-15 09:51:00,
2013-04-15 04:56:00,68.1,66.0,29.56,SSW,196,5.0,8.0,93,0.00,,,0.00,WeatherCatV1.02B3,2013-04-15 09:56:00,
2013-04-15 05:01:00,68.1,66.0,29.56,South,180,4.0,9.0,93,0.00,,,0.00,WeatherCatV1.02B3,2013-04-15 10:01:00,
2013-04-15 05:06:00,68.2,66.1,29.56,SSW,197,9.0,9.0,93,0.00,,,0.00,WeatherCatV1.02B3,2013-04-15 10:06:00,
2013-04-15 05:11:00,68.2,66.1,29.56,South,174,2.0,4.0,93,0.00,,,0.00,WeatherCatV1.02B3,2013-04-15 10:11:00,
2013-04-15 05:16:00,68.3,66.2,29.56,SSW,194,3.0,4.0,93,0.00,,,0.00,WeatherCatV1.02B3,2013-04-15 10:16:00,
2013-04-15 05:21:00,68.3,66.2,29.56,SE,134,5.0,12.0,93,0.00,,,0.00,WeatherCatV1.02B3,2013-04-15 10:21:00,
2013-04-15 05:26:00,68.3,66.2,29.56,SW,223,11.0,15.0,93,0.00,,,0.00,WeatherCatV1.02B3,2013-04-15 10:26:00,
2013-04-15 05:31:00,68.3,65.9,29.57,SW,232,6.0,7.0,92,0.00,,,0.00,WeatherCatV1.02B3,2013-04-15 10:31:00,
2013-04-15 05:36:00,68.4,66.0,29.57,WSW,253,8.0,10.0,92,0.00,,,0.00,WeatherCatV1.02B3,2013-04-15 10:36:00,
2013-04-15 05:41:00,68.5,66.1,29.57,South,182,3.0,10.0,92,0.00,,,0.00,WeatherCatV1.02B3,2013-04-15 10:41:00,
2013-04-15 05:46:00,68.5,66.1,29.57,SE,139,6.0,11.0,92,0.00,,,0.00,WeatherCatV1.02B3,2013-04-15 10:46:00,
2013-04-15 05:51:00,68.6,66.2,29.57,SSW,201,6.0,9.0,92,0.00,,,0.00,WeatherCatV1.02B3,2013-04-15 10:51:00,
2013-04-15 05:56:00,68.6,66.2,29.57,SW,215,4.0,6.0,92,0.00,,,0.00,WeatherCatV1.02B3,2013-04-15 10:56:00,
2013-04-15 06:01:00,68.6,65.9,29.57,SW,214,1.0,7.0,91,0.00,,,0.00,WeatherCatV1.02B3,2013-04-15 11:01:00,
2013-04-15 06:06:00,68.7,66.0,29.57,SSE,165,3.0,11.0,91,0.00,,,0.00,WeatherCatV1.02B3,2013-04-15 11:06:00,
2013-04-15 06:11:00,68.7,66.0,29.57,SSW,202,5.0,12.0,91,0.00,,,0.00,WeatherCatV1.02B3,2013-04-15 11:11:00,
2013-04-15 06:16:00,68.8,66.1,29.58,SSW,213,4.0,10.0,91,0.00,,,0.00,WeatherCatV1.02B3,2013-04-15 11:16:00,
2013-04-15 06:21:00,68.8,66.1,29.58,SSW,207,15.0,15.0,91,0.00,,,0.00,WeatherCatV1.02B3,2013-04-15 11:21:00,
2013-04-15 06:26:00,68.8,65.7,29.58,South,174,2.0,12.0,90,0.00,,,0.00,WeatherCatV1.02B3,2013-04-15 11:26:00,
2013-04-15 06:31:00,68.9,65.8,29.59,SW,228,5.0,12.0,90,0.00,,,0.00,WeatherCatV1.02B3,2013-04-15 11:31:00,
2013-04-15 06:36:00,68.9,65.8,29.59,South,188,2.0,7.0,90,0.00,,,0.00,WeatherCatV1.02B3,2013-04-15 11:36:00,
2013-04-15 06:41:00,68.9,65.8,29.59,WSW,237,4.0,9.0,90,0.00,,,0.00,WeatherCatV1.02B3,2013-04-15 11:41:00,
2013-04-15 06:46:00,69.0,65.9,29.59,WSW,239,4.0,15.0,90,0.00,,,0.00,WeatherCatV1.02B3,2013-04-15 11:46:00,
2013-04-15 06:51:00,69.0,65.9,29.59,South,189,6.0,10.0,90,0.00,,,0.00,WeatherCatV1.02B3,2013-04-15 11:51:00,
2013-04-15 06:56:00,69.1,66.0,29.59,SSW,205,3.0,9.0,90,0.00,,,0.00,WeatherCatV1.02B3,2013-04-15 11:56:00,
2013-04-15 07:01:00,69.1,66.0,29.60,SW,224,10.0,12.0,90,0.00,,,0.00,WeatherCatV1.02B3,2013-04-15 12:01:00,
2013-04-15 07:06:00,69.2,66.1,29.60,SSW,211,4.0,8.0,90,0.00,,,0.00,WeatherCatV1.02B3,2013-04-15 12:06:00,
2013-04-15 07:11:00,69.3,66.2,29.60,SW,227,5.0,11.0,90,0.00,,,0.00,WeatherCatV1.02B3,2013-04-15 12:11:00,
2013-04-15 07:17:00,69.3,66.2,29.61,SW,231,5.0,13.0,90,0.00,,,0.00,WeatherCatV1.02B3,2013-04-15 12:17:00,
2013-04-15 07:22:00,69.4,66.0,29.61,WSW,250,5.0,19.0,89,0.00,,,0.00,WeatherCatV1.02B3,2013-04-15 12:22:00,
2013-04-15 07:27:00,69.4,66.0,29.61,SSW,210,11.0,11.0,89,0.00,,,0.00,WeatherCatV1.02B3,2013-04-15 12:27:00,
2013-04-15 07:32:00,69.5,66.1,29.61,SW,222,6.0,13.0,89,0.00,,,0.00,WeatherCatV1.02B3,2013-04-15 12:32:00,
2013-04-15 07:37:00,69.6,66.2,29.61,South,182,3.0,16.0,89,0.00,,,0.00,WeatherCatV1.02B3,2013-04-15 12:37:00,
2013-04-15 07:42:00,69.7,66.3,29.61,SSW,208,6.0,12.0,89,0.00,,,0.00,WeatherCatV1.02B3,2013-04-15 12:42:00,
2013-04-15 07:47:00,69.7,66.3,29.62,SSW,192,2.0,11.0,89,0.00,,,0.00,WeatherCatV1.02B3,2013-04-15 12:47:00,
2013-04-15 07:52:00,69.8,66.4,29.62,SSW,198,4.0,8.0,89,0.00,,,0.00,WeatherCatV1.02B3,2013-04-15 12:52:00,
2013-04-15 07:57:00,69.9,66.2,29.62,SW,222,5.0,16.0,88,0.00,,,0.00,WeatherCatV1.02B3,2013-04-15 12:57:00,
2013-04-15 08:02:00,70.0,66.3,29.63,SW,234,7.0,10.0,88,0.00,,,0.00,WeatherCatV1.02B3,2013-04-15 13:02:00,
2013-04-15 08:07:00,70.1,66.4,29.63,WSW,249,8.0,10.0,88,0.00,,,0.00,WeatherCatV1.02B3,2013-04-15 13:07:00,
2013-04-15 08:12:00,70.2,66.5,29.63,South,188,5.0,15.0,88,0.00,,,0.00,WeatherCatV1.02B3,2013-04-15 13:12:00,
2013-04-15 08:17:00,70.3,66.6,29.64,South,177,3.0,10.0,88,0.00,,,0.00,WeatherCatV1.02B3,2013-04-15 13:17:00,
2013-04-15 08:22:00,70.3,66.2,29.64,SW,217,7.0,11.0,87,0.00,,,0.00,WeatherCatV1.02B3,2013-04-15 13:22:00,
2013-04-15 08:27:00,70.4,66.3,29.64,SSE,162,5.0,10.0,87,0.00,,,0.00,WeatherCatV1.02B3,2013-04-15 13:27:00,
2013-04-15 08:32:00,70.5,66.4,29.64,SW,220,6.0,14.0,87,0.00,,,0.00,WeatherCatV1.02B3,2013-04-15 13:32:00,
2013-04-15 08:37:00,70.6,66.5,29.64,SW,221,4.0,13.0,87,0.00,,,0.00,WeatherCatV1.02B3,2013-04-15 13:37:00,
2013-04-15 08:42:00,70.7,66.3,29.64,SSW,195,6.0,14.0,86,0.00,,,0.00,WeatherCatV1.02B3,2013-04-15 13:42:00,
2013-04-15 08:47:00,70.8,66.4,29.65,SSW,194,3.0,12.0,86,0.00,,,0.00,WeatherCatV1.02B3,2013-04-15 13:47:00,
2013-04-15 08:52:00,71.0,66.6,29.65,South,191,6.0,6.0,86,0.00,,,0.00,WeatherCatV1.02B3,2013-04-15 13:52:00,
2013-04-15 08:57:00,71.1,66.7,29.65,SSW,206,7.0,14.0,86,0.00,,,0.00,WeatherCatV1.02B3,2013-04-15 13:57:00,
2013-04-15 09:02:00,71.2,66.4,29.65,SSW,200,11.0,16.0,85,0.00,,,0.00,WeatherCatV1.02B3,2013-04-15 14:02:00,
2013-04-15 09:07:00,71.3,66.5,29.65,South,172,4.0,6.0,85,0.00,,,0.00,WeatherCatV1.02B3,2013-04-15 14:07:00,
2013-04-15 09:12:00,71.4,66.6,29.65,SSW,213,4.0,12.0,85,0.00,,,0.00,WeatherCatV1.02B3,2013-04-15 14:12:00,
2013-04-15 09:17:00,71.6,66.8,29.65,West,260,3.0,12.0,85,0.00,,,0.00,WeatherCatV1.02B3,2013-04-15 14:17:00,
2013-04-15 09:22:00,71.8,67.0,29.65,SW,224,5.0,16.0,85,0.00,,,0.00,WeatherCatV1.02B3,2013-04-15 14:22:00,
2013-04-15 09:27:00,72.0,67.2,29.65,SW,215,6.0,7.0,85,0.00,,,0.00,WeatherCatV1.02B3,2013-04-15 14:27:00,
2013-04-15 09:32:00,72.2,67.1,29.65,SSE,167,4.0,9.0,84,0.00,,,0.00,WeatherCatV1.02B3,2013-04-15 14:32:00,
2013-04-15 09:37:00,72.3,67.2,29.65,SW,217,6.0,11.0,84,0.00,,,0.00,WeatherCatV1.02B3,2013-04-15 14:37:00,
2013-04-15 09:42:00,72.4,67.3,29.65,SW,219,13.0,13.0,84,0.00,,,0.00,WeatherCatV1.02B3,2013-04-15 14:42:00,
2013-04-15 09:47:00,72.6,67.1,29.65,SW,230,12.0,17.0,83,0.00,,,0.00,WeatherCatV1.02B3,2013-04-15 14:47:00,
2013-04-15 09:52:00,72.7,67.2,29.65,WSW,243,5.0,14.0,83,0.00,,,0.00,WeatherCatV1.02B3,2013-04-15 14:52:00,
2013-04-15 09:57:00,72.8,67.0,29.65,SW,229,5.0,11.0,82,0.00,,,0.00,WeatherCatV1.02B3,2013-04-15 14:57:00,
2013-04-15 10:02:00,73.0,67.9,29.65,SSW,192,1.0,10.0,84,0.00,,,0.00,WeatherCatV1.02B3,2013-04-15 15:02:00,
2013-04-15 10:07:00,73.2,67.4,29.65,SW,232,10.0,15.0,82,0.00,,,0.00,WeatherCatV1.02B3,2013-04-15 15:07:00,
2013-04-15 10:12:00,73.3,67.5,29.65,SW,231,5.0,20.0,82,0.00,,,0.00,WeatherCatV1.02B3,2013-04-15 15:12:00,
2013-04-15 10:17:00,73.3,67.5,29.66,SSE,161,4.0,11.0,82,0.00,,,0.00,WeatherCatV1.02B3,2013-04-15 15:17:00,
2013-04-15 10:22:00,73.8,67.9,29.66,South,184,7.0,11.0,82,0.00,,,0.00,WeatherCatV1.02B3,2013-04-15 15:22:00,
2013-04-15 10:27:00,74.0,67.8,29.66,SSW,210,9.0,17.0,81,0.00,,,0.00,WeatherCatV1.02B3,2013-04-15 15:27:00,
2013-04-15 10:32:00,74.1,67.5,29.67,South,176,1.0,18.0,80,0.00,,,0.00,WeatherCatV1.02B3,2013-04-15 15:32:00,
2013-04-15 10:37:00,74.2,67.6,29.67,SSW,210,4.0,13.0,80,0.00,,,0.00,WeatherCatV1.02B3,2013-04-15 15:37:00,
2013-04-15 10:42:00,74.2,67.3,29.67,WSW,238,3.0,15.0,79,0.00,,,0.00,WeatherCatV1.02B3,2013-04-15 15:42:00,
2013-04-15 10:47:00,74.4,67.8,29.67,ESE,119,9.0,15.0,80,0.00,,,0.00,WeatherCatV1.02B3,2013-04-15 15:47:00,
2013-04-15 10:52:00,74.6,67.6,29.67,NNE,13,9.0,15.0,79,0.00,,,0.00,WeatherCatV1.02B3,2013-04-15 15:52:00,
2013-04-15 10:57:00,75.0,67.7,29.67,SSW,206,12.0,17.0,78,0.00,,,0.00,WeatherCatV1.02B3,2013-04-15 15:57:00,
2013-04-15 11:02:00,75.6,68.2,29.67,South,190,6.0,12.0,78,0.00,,,0.00,WeatherCatV1.02B3,2013-04-15 16:02:00,
2013-04-15 11:07:00,76.1,68.0,29.67,SW,230,5.0,22.0,76,0.00,,,0.00,WeatherCatV1.02B3,2013-04-15 16:07:00,
2013-04-15 11:12:00,76.2,68.1,29.67,SW,229,12.0,17.0,76,0.00,,,0.00,WeatherCatV1.02B3,2013-04-15 16:12:00,
2013-04-15 11:17:00,76.7,68.5,29.67,SSW,193,5.0,11.0,76,0.00,,,0.00,WeatherCatV1.02B3,2013-04-15 16:17:00,
2013-04-15 11:22:00,77.2,69.0,29.67,South,169,5.0,9.0,76,0.00,,,0.00,WeatherCatV1.02B3,2013-04-15 16:22:00,
2013-04-15 11:27:00,78.3,69.3,29.67,SSW,207,11.0,13.0,74,0.00,,,0.00,WeatherCatV1.02B3,2013-04-15 16:27:00,
2013-04-15 11:32:00,78.8,69.8,29.67,SSW,197,4.0,11.0,74,0.00,,,0.00,WeatherCatV1.02B3,2013-04-15 16:32:00,
2013-04-15 11:37:00,79.0,68.4,29.67,SSW,205,6.0,15.0,70,0.00,,,0.00,WeatherCatV1.02B3,2013-04-15 16:37:00,
2013-04-15 11:42:00,79.1,68.0,29.67,SSE,168,7.0,16.0,69,0.00,,,0.00,WeatherCatV1.02B3,2013-04-15 16:42:00,
2013-04-15 11:47:00,79.1,68.5,29.67,South,184,2.0,12.0,70,0.00,,,0.00,WeatherCatV1.02B3,2013-04-15 16:47:00,
2013-04-15 11:52:00,79.5,69.7,29.67,SW,229,2.0,17.0,72,0.00,,,0.00,WeatherCatV1.02B3,2013-04-15 16:52:00,
2013-04-15 11:57:00,80.2,69.1,29.67,South,187,6.0,17.0,69,0.00,,,0.00,WeatherCatV1.02B3,2013-04-15 16:57:00,
2013-04-15 12:02:00,80.6,69.5,29.67,WSW,240,7.0,12.0,69,0.00,,,0.00,WeatherCatV1.02B3,2013-04-15 17:02:00,
2013-04-15 12:07:00,81.1,68.6,29.67,South,187,7.0,15.0,66,0.00,,,0.00,WeatherCatV1.02B3,2013-04-15 17:07:00,
2013-04-15 12:12:00,81.2,69.2,29.67,SE,131,6.0,18.0,67,0.00,,,0.00,WeatherCatV1.02B3,2013-04-15 17:12:00,
2013-04-15 12:17:00,81.3,69.3,29.67,SSW,212,5.0,13.0,67,0.00,,,0.00,WeatherCatV1.02B3,2013-04-15 17:17:00,
2013-04-15 12:21:00,81.6,69.6,29.67,WSW,240,11.0,15.0,67,0.00,,,0.00,WeatherCatV1.02B3,2013-04-15 17:21:00,
2013-04-15 12:26:00,81.7,68.8,29.67,SSW,197,5.0,14.0,65,0.00,,,0.00,WeatherCatV1.02B3,2013-04-15 17:26:00,
2013-04-15 12:31:00,81.7,68.8,29.67,SSW,208,5.0,17.0,65,0.00,,,0.00,WeatherCatV1.02B3,2013-04-15 17:31:00,
2013-04-15 12:32:00,81.7,68.8,29.67,SSW,207,5.0,17.0,65,0.00,,,0.00,WeatherCatV1.02B3,2013-04-15 17:32:00,
2013-04-15 12:36:00,82.0,69.0,29.67,SW,218,8.0,16.0,65,0.00,,,0.00,WeatherCatV1.02B3,2013-04-15 17:36:00,
2013-04-15 12:41:00,82.2,69.2,29.67,SW,217,14.0,14.0,65,0.00,,,0.00,WeatherCatV1.02B3,2013-04-15 17:41:00,
2013-04-15 12:46:00,82.4,69.0,29.67,SSW,213,4.0,15.0,64,0.00,,,0.00,WeatherCatV1.02B3,2013-04-15 17:46:00,
2013-04-15 12:51:00,82.7,68.3,29.67,SW,221,3.0,19.0,62,0.00,,,0.00,WeatherCatV1.02B3,2013-04-15 17:51:00,
2013-04-15 12:56:00,82.8,69.3,29.67,WSW,238,6.0,13.0,64,0.00,,,0.00,WeatherCatV1.02B3,2013-04-15 17:56:00,
2013-04-15 13:01:00,82.9,69.0,29.66,SSW,212,6.0,16.0,63,0.00,,,0.00,WeatherCatV1.02B3,2013-04-15 18:01:00,
2013-04-15 13:06:00,83.3,69.4,29.66,WSW,238,4.0,14.0,63,0.00,,,0.00,WeatherCatV1.02B3,2013-04-15 18:06:00,
2013-04-15 13:11:00,83.5,70.0,29.66,SSW,211,11.0,17.0,64,0.00,,,0.00,WeatherCatV1.02B3,2013-04-15 18:11:00,
2013-04-15 13:16:00,83.4,69.0,29.66,South,173,10.0,16.0,62,0.00,,,0.00,WeatherCatV1.02B3,2013-04-15 18:16:00,
2013-04-15 13:21:00,83.4,69.9,29.66,South,191,3.0,11.0,64,0.00,,,0.00,WeatherCatV1.02B3,2013-04-15 18:21:00,
2013-04-15 13:26:00,83.8,69.4,29.66,SSW,211,12.0,12.0,62,0.00,,,0.00,WeatherCatV1.02B3,2013-04-15 18:26:00,
2013-04-15 13:29:00,83.8,68.9,29.66,SSW,208,3.0,18.0,61,0.00,,,0.00,WeatherCatV1.02B3,2013-04-15 18:29:00,
2013-04-15 13:34:00,83.8,69.4,29.66,South,175,6.0,13.0,62,0.00,,,0.00,WeatherCatV1.02B3,2013-04-15 18:34:00,
2013-04-15 13:39:00,84.0,69.5,29.66,South,188,10.0,13.0,62,0.00,,,0.00,WeatherCatV1.02B3,2013-04-15 18:39:00,
2013-04-15 13:44:00,84.1,69.2,29.66,SSW,193,9.0,14.0,61,0.00,,,0.00,WeatherCatV1.02B3,2013-04-15 18:44:00,
2013-04-15 13:49:00,84.2,69.3,29.65,SSE,162,6.0,13.0,61,0.00,,,0.00,WeatherCatV1.02B3,2013-04-15 18:49:00,
2013-04-15 13:54:00,84.5,70.5,29.65,South,178,1.0,4.0,63,0.00,,,0.00,WeatherCatV1.02B3,2013-04-15 18:54:00,
2013-04-15 13:59:00,85.0,68.5,29.65,SSW,207,3.0,17.0,58,0.00,,,0.00,WeatherCatV1.02B3,2013-04-15 18:59:00,
2013-04-15 14:04:00,85.0,68.5,29.65,SE,139,6.0,20.0,58,0.00,,,0.00,WeatherCatV1.02B3,2013-04-15 19:04:00,
2013-04-15 14:09:00,84.9,68.9,29.65,SW,229,2.0,16.0,59,0.00,,,0.00,WeatherCatV1.02B3,2013-04-15 19:09:00,
2013-04-15 14:14:00,84.9,69.9,29.65,South,190,12.0,17.0,61,0.00,,,0.00,WeatherCatV1.02B3,2013-04-15 19:14:00,
2013-04-15 14:19:00,85.2,69.7,29.65,SE,132,9.0,9.0,60,0.00,,,0.00,WeatherCatV1.02B3,2013-04-15 19:19:00,
2013-04-15 14:24:00,85.7,69.7,29.65,SSW,213,3.0,16.0,59,0.00,,,0.00,WeatherCatV1.02B3,2013-04-15 19:24:00,
2013-04-15 14:29:00,85.7,69.7,29.64,South,190,13.0,14.0,59,0.00,,,0.00,WeatherCatV1.02B3,2013-04-15 19:29:00,
2013-04-15 14:34:00,85.8,69.8,29.64,SSW,211,9.0,14.0,59,0.00,,,0.00,WeatherCatV1.02B3,2013-04-15 19:34:00,
2013-04-15 14:39:00,85.7,69.2,29.64,SW,233,4.0,15.0,58,0.00,,,0.00,WeatherCatV1.02B3,2013-04-15 19:39:00,
2013-04-15 14:44:00,85.9,69.4,29.64,SW,236,7.0,14.0,58,0.00,,,0.00,WeatherCatV1.02B3,2013-04-15 19:44:00,
2013-04-15 14:49:00,85.9,68.9,29.63,South,186,5.0,15.0,57,0.00,,,0.00,WeatherCatV1.02B3,2013-04-15 19:49:00,
2013-04-15 14:54:00,85.7,69.2,29.63,SW,222,3.0,7.0,58,0.00,,,0.00,WeatherCatV1.02B3,2013-04-15 19:54:00,
2013-04-15 14:59:00,86.0,70.5,29.63,South,173,0.0,5.0,60,0.00,,,0.00,WeatherCatV1.02B3,2013-04-15 19:59:00,
2013-04-15 15:02:00,86.2,69.7,29.63,WSW,243,12.0,20.0,58,0.00,,,0.00,WeatherCatV1.02B3,2013-04-15 20:02:00,
2013-04-15 15:06:00,86.3,69.2,29.63,SSW,204,5.0,14.0,57,0.00,,,0.00,WeatherCatV1.02B3,2013-04-15 20:06:00,
2013-04-15 15:11:00,86.4,68.8,29.63,SSW,202,5.0,14.0,56,0.00,,,0.00,WeatherCatV1.02B3,2013-04-15 20:11:00,
2013-04-15 15:16:00,86.4,68.8,29.63,SSW,198,4.0,18.0,56,0.00,,,0.00,WeatherCatV1.02B3,2013-04-15 20:16:00,
2013-04-15 15:21:00,86.6,70.0,29.63,WSW,257,0.0,10.0,58,0.00,,,0.00,WeatherCatV1.02B3,2013-04-15 20:21:00,
2013-04-15 15:26:00,86.8,69.7,29.63,SW,214,1.0,11.0,57,0.00,,,0.00,WeatherCatV1.02B3,2013-04-15 20:26:00,
2013-04-15 15:31:00,87.0,69.4,29.62,SSW,211,8.0,13.0,56,0.00,,,0.00,WeatherCatV1.02B3,2013-04-15 20:31:00,
2013-04-15 15:36:00,87.0,69.9,29.62,SW,219,0.0,16.0,57,0.00,,,0.00,WeatherCatV1.02B3,2013-04-15 20:36:00,
2013-04-15 15:41:00,86.9,69.8,29.62,SSW,205,5.0,10.0,57,0.00,,,0.00,WeatherCatV1.02B3,2013-04-15 20:41:00,
2013-04-15 15:46:00,87.0,70.4,29.62,SW,218,3.0,15.0,58,0.00,,,0.00,WeatherCatV1.02B3,2013-04-15 20:46:00,
2013-04-15 15:51:00,87.1,70.0,29.62,SSW,192,5.0,12.0,57,0.00,,,0.00,WeatherCatV1.02B3,2013-04-15 20:51:00,
2013-04-15 15:56:00,87.0,69.9,29.62,SE,144,11.0,14.0,57,0.00,,,0.00,WeatherCatV1.02B3,2013-04-15 20:56:00,
2013-04-15 16:01:00,86.8,69.7,29.61,SSW,192,7.0,13.0,57,0.00,,,0.00,WeatherCatV1.02B3,2013-04-15 21:01:00,
2013-04-15 16:06:00,86.7,69.6,29.61,SSE,165,2.0,11.0,57,0.00,,,0.00,WeatherCatV1.02B3,2013-04-15 21:06:00,
2013-04-15 16:11:00,86.7,69.6,29.61,SSW,192,7.0,19.0,57,0.00,,,0.00,WeatherCatV1.02B3,2013-04-15 21:11:00,
2013-04-15 16:16:00,86.8,70.2,29.61,South,186,7.0,13.0,58,0.00,,,0.00,WeatherCatV1.02B3,2013-04-15 21:16:00,
2013-04-15 16:21:00,86.9,69.3,29.61,South,184,10.0,11.0,56,0.00,,,0.00,WeatherCatV1.02B3,2013-04-15 21:21:00,
2013-04-15 16:26:00,86.6,68.5,29.61,South,186,5.0,13.0,55,0.00,,,0.00,WeatherCatV1.02B3,2013-04-15 21:26:00,
2013-04-15 16:31:00,86.6,68.5,29.60,SSW,211,10.0,18.0,55,0.00,,,0.00,WeatherCatV1.02B3,2013-04-15 21:31:00,
2013-04-15 16:36:00,86.4,68.3,29.60,SSW,202,5.0,12.0,55,0.00,,,0.00,WeatherCatV1.02B3,2013-04-15 21:36:00,
2013-04-15 16:41:00,86.3,69.2,29.60,SW,216,6.0,10.0,57,0.00,,,0.00,WeatherCatV1.02B3,2013-04-15 21:41:00,
2013-04-15 16:46:00,86.5,69.4,29.61,SW,214,4.0,10.0,57,0.00,,,0.00,WeatherCatV1.02B3,2013-04-15 21:46:00,
2013-04-15 16:51:00,86.0,69.0,29.61,SSE,163,6.0,11.0,57,0.00,,,0.00,WeatherCatV1.02B3,2013-04-15 21:51:00,
2013-04-15 16:56:00,85.6,68.6,29.61,SSE,168,0.0,9.0,57,0.00,,,0.00,WeatherCatV1.02B3,2013-04-15 21:56:00,
2013-04-15 17:01:00,85.6,70.1,29.61,SSW,205,5.0,12.0,60,0.00,,,0.00,WeatherCatV1.02B3,2013-04-15 22:01:00,
2013-04-15 17:06:00,85.4,69.4,29.61,SSE,159,6.0,16.0,59,0.00,,,0.00,WeatherCatV1.02B3,2013-04-15 22:06:00,
2013-04-15 17:11:00,85.1,69.1,29.61,South,179,5.0,10.0,59,0.00,,,0.00,WeatherCatV1.02B3,2013-04-15 22:11:00,
2013-04-15 17:16:00,84.7,68.8,29.60,SSE,161,8.0,15.0,59,0.00,,,0.00,WeatherCatV1.02B3,2013-04-15 22:16:00,
2013-04-15 17:21:00,84.5,68.6,29.60,South,180,6.0,14.0,59,0.00,,,0.00,WeatherCatV1.02B3,2013-04-15 22:21:00,
2013-04-15 17:26:00,84.2,67.8,29.60,SW,221,13.0,18.0,58,0.00,,,0.00,WeatherCatV1.02B3,2013-04-15 22:26:00,
2013-04-15 17:31:00,84.0,68.1,29.60,SSE,159,3.0,13.0,59,0.00,,,0.00,WeatherCatV1.02B3,2013-04-15 22:31:00,
2013-04-15 17:36:00,84.2,68.3,29.60,South,175,3.0,10.0,59,0.00,,,0.00,WeatherCatV1.02B3,2013-04-15 22:36:00,
2013-04-15 17:41:00,84.3,67.9,29.60,SW,219,7.0,13.0,58,0.00,,,0.00,WeatherCatV1.02B3,2013-04-15 22:41:00,
2013-04-15 17:46:00,84.4,68.0,29.61,South,187,5.0,11.0,58,0.00,,,0.00,WeatherCatV1.02B3,2013-04-15 22:46:00,
2013-04-15 17:51:00,84.4,68.0,29.61,SSW,202,4.0,12.0,58,0.00,,,0.00,WeatherCatV1.02B3,2013-04-15 22:51:00,
2013-04-15 17:56:00,84.1,66.7,29.61,WSW,247,3.0,13.0,56,0.00,,,0.00,WeatherCatV1.02B3,2013-04-15 22:56:00,
2013-04-15 18:01:00,83.8,66.4,29.62,SSE,148,6.0,13.0,56,0.00,,,0.00,WeatherCatV1.02B3,2013-04-15 23:01:00,
2013-04-15 18:06:00,83.5,66.1,29.62,SW,224,7.0,15.0,56,0.00,,,0.00,WeatherCatV1.02B3,2013-04-15 23:06:00,
2013-04-15 18:11:00,83.1,66.3,29.62,SSE,164,5.0,9.0,57,0.00,,,0.00,WeatherCatV1.02B3,2013-04-15 23:11:00,
2013-04-15 18:16:00,82.8,67.0,29.62,South,184,5.0,6.0,59,0.00,,,0.00,WeatherCatV1.02B3,2013-04-15 23:16:00,
2013-04-15 18:21:00,82.6,66.8,29.62,WSW,237,13.0,15.0,59,0.00,,,0.00,WeatherCatV1.02B3,2013-04-15 23:21:00,
2013-04-15 18:26:00,82.5,67.2,29.62,SE,138,1.0,9.0,60,0.00,,,0.00,WeatherCatV1.02B3,2013-04-15 23:26:00,
2013-04-15 18:31:00,82.3,67.0,29.62,SSE,149,0.0,4.0,60,0.00,,,0.00,WeatherCatV1.02B3,2013-04-15 23:31:00,
2013-04-15 18:36:00,82.1,67.3,29.62,South,174,0.0,3.0,61,0.00,,,0.00,WeatherCatV1.02B3,2013-04-15 23:36:00,
2013-04-15 18:41:00,81.9,67.6,29.62,WSW,257,1.0,2.0,62,0.00,,,0.00,WeatherCatV1.02B3,2013-04-15 23:41:00,
2013-04-15 18:46:00,81.8,67.9,29.62,WSW,239,0.0,1.0,63,0.00,,,0.00,WeatherCatV1.02B3,2013-04-15 23:46:00,
2013-04-15 18:51:00,81.6,67.3,29.62,SSW,211,2.0,6.0,62,0.00,,,0.00,WeatherCatV1.02B3,2013-04-15 23:51:00,
2013-04-15 18:56:00,81.5,67.2,29.62,SW,222,1.0,11.0,62,0.00,,,0.00,WeatherCatV1.02B3,2013-04-15 23:56:00,
2013-04-15 19:01:00,81.3,67.5,29.62,SSW,204,0.0,6.0,63,0.00,,,0.00,WeatherCatV1.02B3,2013-04-16 00:01:00,
2013-04-15 19:06:00,81.2,67.4,29.62,South,184,0.0,7.0,63,0.00,,,0.00,WeatherCatV1.02B3,2013-04-16 00:06:00,
2013-04-15 19:11:00,81.1,67.3,29.62,South,190,0.0,3.0,63,0.00,,,0.00,WeatherCatV1.02B3,2013-04-16 00:11:00,
2013-04-15 19:16:00,81.0,67.6,29.62,SSW,194,1.0,3.0,64,0.00,,,0.00,WeatherCatV1.02B3,2013-04-16 00:16:00,
2013-04-15 19:21:00,80.8,67.9,29.62,South,169,0.0,4.0,65,0.00,,,0.00,WeatherCatV1.02B3,2013-04-16 00:21:00,
2013-04-15 19:26:00,80.5,67.6,29.62,South,180,0.0,3.0,65,0.00,,,0.00,WeatherCatV1.02B3,2013-04-16 00:26:00,
2013-04-15 19:31:00,80.2,67.3,29.63,South,188,0.0,1.0,65,0.00,,,0.00,WeatherCatV1.02B3,2013-04-16 00:31:00,
2013-04-15 19:36:00,80.0,67.6,29.63,SE,146,0.0,2.0,66,0.00,,,0.00,WeatherCatV1.02B3,2013-04-16 00:36:00,
2013-04-15 19:41:00,79.7,67.3,29.63,SSE,159,0.0,0.0,66,0.00,,,0.00,WeatherCatV1.02B3,2013-04-16 00:41:00,
2013-04-15 19:46:00,79.5,67.6,29.63,SSE,155,0.0,3.0,67,0.00,,,0.00,WeatherCatV1.02B3,2013-04-16 00:46:00,
2013-04-15 19:51:00,79.3,67.4,29.63,SSE,150,0.0,5.0,67,0.00,,,0.00,WeatherCatV1.02B3,2013-04-16 00:51:00,
2013-04-15 19:56:00,79.0,67.5,29.63,SSE,154,0.0,0.0,68,0.00,,,0.00,WeatherCatV1.02B3,2013-04-16 00:56:00,
2013-04-15 20:01:00,78.7,67.7,29.64,South,184,0.0,0.0,69,0.00,,,0.00,WeatherCatV1.02B3,2013-04-16 01:01:00,
2013-04-15 20:06:00,78.4,67.4,29.64,SSE,165,0.0,3.0,69,0.00,,,0.00,WeatherCatV1.02B3,2013-04-16 01:06:00,
2013-04-15 20:11:00,78.1,67.5,29.64,SW,230,0.0,1.0,70,0.00,,,0.00,WeatherCatV1.02B3,2013-04-16 01:11:00,
2013-04-15 20:16:00,77.9,67.7,29.65,SSE,163,0.0,4.0,71,0.00,,,0.00,WeatherCatV1.02B3,2013-04-16 01:16:00,
2013-04-15 20:21:00,77.6,67.4,29.65,SSE,153,0.0,6.0,71,0.00,,,0.00,WeatherCatV1.02B3,2013-04-16 01:21:00,
2013-04-15 20:26:00,77.4,67.2,29.65,SSE,154,0.0,3.0,71,0.00,,,0.00,WeatherCatV1.02B3,2013-04-16 01:26:00,
2013-04-15 20:31:00,77.3,67.6,29.65,South,190,0.0,6.0,72,0.00,,,0.00,WeatherCatV1.02B3,2013-04-16 01:31:00,
2013-04-15 20:36:00,77.1,67.4,29.65,SSE,153,0.0,5.0,72,0.00,,,0.00,WeatherCatV1.02B3,2013-04-16 01:36:00,
2013-04-15 20:41:00,77.0,67.3,29.65,SE,128,11.0,11.0,72,0.00,,,0.00,WeatherCatV1.02B3,2013-04-16 01:41:00,
2013-04-15 20:46:00,77.0,67.3,29.65,SSW,193,7.0,8.0,72,0.00,,,0.00,WeatherCatV1.02B3,2013-04-16 01:46:00,
2013-04-15 20:51:00,77.0,67.3,29.65,South,183,2.0,10.0,72,0.00,,,0.00,WeatherCatV1.02B3,2013-04-16 01:51:00,
2013-04-15 20:56:00,76.9,67.6,29.65,SSE,165,1.0,13.0,73,0.00,,,0.00,WeatherCatV1.02B3,2013-04-16 01:56:00,
2013-04-15 21:01:00,76.9,67.2,29.65,SE,137,3.0,12.0,72,0.00,,,0.00,WeatherCatV1.02B3,2013-04-16 02:01:00,
2013-04-15 21:06:00,76.9,67.2,29.65,South,175,0.0,6.0,72,0.00,,,0.00,WeatherCatV1.02B3,2013-04-16 02:06:00,
2013-04-15 21:11:00,76.8,67.1,29.65,SW,225,7.0,13.0,72,0.00,,,0.00,WeatherCatV1.02B3,2013-04-16 02:11:00,
2013-04-15 21:16:00,76.9,66.8,29.65,SSE,165,6.0,12.0,71,0.00,,,0.00,WeatherCatV1.02B3,2013-04-16 02:16:00,
2013-04-15 21:21:00,76.9,66.8,29.65,South,177,11.0,14.0,71,0.00,,,0.00,WeatherCatV1.02B3,2013-04-16 02:21:00,
2013-04-15 21:26:00,77.0,66.9,29.65,South,180,6.0,13.0,71,0.00,,,0.00,WeatherCatV1.02B3,2013-04-16 02:26:00,
2013-04-15 21:31:00,77.0,66.4,29.65,SSW,196,4.0,11.0,70,0.00,,,0.00,WeatherCatV1.02B3,2013-04-16 02:31:00,
2013-04-15 21:36:00,77.0,66.4,29.65,SSW,206,2.0,10.0,70,0.00,,,0.00,WeatherCatV1.02B3,2013-04-16 02:36:00,
2013-04-15 21:41:00,76.9,66.3,29.65,SSE,148,5.0,13.0,70,0.00,,,0.00,WeatherCatV1.02B3,2013-04-16 02:41:00,
2013-04-15 21:46:00,76.8,66.3,29.66,SSE,163,3.0,11.0,70,0.00,,,0.00,WeatherCatV1.02B3,2013-04-16 02:46:00,
2013-04-15 21:51:00,76.7,66.6,29.66,South,185,5.0,5.0,71,0.00,,,0.00,WeatherCatV1.02B3,2013-04-16 02:51:00,
2013-04-15 21:56:00,76.6,66.5,29.66,South,184,3.0,9.0,71,0.00,,,0.00,WeatherCatV1.02B3,2013-04-16 02:56:00,
2013-04-15 22:01:00,76.5,66.4,29.67,South,182,3.0,5.0,71,0.00,,,0.00,WeatherCatV1.02B3,2013-04-16 03:01:00,
2013-04-15 22:06:00,76.4,66.7,29.67,SSE,168,7.0,9.0,72,0.00,,,0.00,WeatherCatV1.02B3,2013-04-16 03:06:00,
2013-04-15 22:11:00,76.4,66.7,29.67,SE,145,2.0,10.0,72,0.00,,,0.00,WeatherCatV1.02B3,2013-04-16 03:11:00,
2013-04-15 22:16:00,76.2,66.5,29.67,South,189,2.0,11.0,72,0.00,,,0.00,WeatherCatV1.02B3,2013-04-16 03:16:00,
2013-04-15 22:21:00,76.0,66.7,29.67,South,172,3.0,9.0,73,0.00,,,0.00,WeatherCatV1.02B3,2013-04-16 03:21:00,
2013-04-15 22:26:00,75.7,66.4,29.67,SSE,163,1.0,6.0,73,0.00,,,0.00,WeatherCatV1.02B3,2013-04-16 03:26:00,
2013-04-15 22:31:00,75.5,66.6,29.67,SSE,160,2.0,12.0,74,0.00,,,0.00,WeatherCatV1.02B3,2013-04-16 03:31:00,
2013-04-15 22:36:00,75.3,66.4,29.67,South,170,3.0,13.0,74,0.00,,,0.00,WeatherCatV1.02B3,2013-04-16 03:36:00,
2013-04-15 22:41:00,75.2,66.3,29.67,SSW,192,6.0,7.0,74,0.00,,,0.00,WeatherCatV1.02B3,2013-04-16 03:41:00,
2013-04-15 22:46:00,75.1,66.2,29.67,SSE,159,3.0,10.0,74,0.00,,,0.00,WeatherCatV1.02B3,2013-04-16 03:46:00,
2013-04-15 22:51:00,74.9,66.4,29.67,SSE,152,2.0,11.0,75,0.00,,,0.00,WeatherCatV1.02B3,2013-04-16 03:51:00,
2013-04-15 22:56:00,74.8,66.3,29.67,SSE,163,2.0,7.0,75,0.00,,,0.00,WeatherCatV1.02B3,2013-04-16 03:56:00,
2013-04-15 23:00:00,74.7,66.2,29.67,WSW,239,9.0,9.0,75,0.00,,,0.00,WeatherCatV1.02B3,2013-04-16 04:00:00,
2013-04-15 23:05:00,74.6,66.5,29.67,SSE,164,2.0,4.0,76,0.00,,,0.00,WeatherCatV1.02B3,2013-04-16 04:05:00,
2013-04-15 23:10:00,74.5,66.4,29.67,SSW,211,7.0,7.0,76,0.00,,,0.00,WeatherCatV1.02B3,2013-04-16 04:10:00,
2013-04-15 23:15:00,74.3,66.2,29.67,SSE,151,4.0,7.0,76,0.00,,,0.00,WeatherCatV1.02B3,2013-04-16 04:15:00,
2013-04-15 23:20:00,74.3,66.6,29.67,South,180,0.0,12.0,77,0.00,,,0.00,WeatherCatV1.02B3,2013-04-16 04:20:00,
2013-04-15 23:25:00,74.2,66.5,29.67,South,175,3.0,9.0,77,0.00,,,0.00,WeatherCatV1.02B3,2013-04-16 04:25:00,
2013-04-15 23:30:00,74.1,66.4,29.67,SSE,162,4.0,11.0,77,0.00,,,0.00,WeatherCatV1.02B3,2013-04-16 04:30:00,
2013-04-15 23:35:00,74.1,66.4,29.67,South,187,5.0,9.0,77,0.00,,,0.00,WeatherCatV1.02B3,2013-04-16 04:35:00,
2013-04-15 23:40:00,74.1,66.4,29.67,South,189,5.0,11.0,77,0.00,,,0.00,WeatherCatV1.02B3,2013-04-16 04:40:00,
2013-04-15 23:45:00,74.1,66.4,29.67,SSW,202,4.0,9.0,77,0.00,,,0.00,WeatherCatV1.02B3,2013-04-16 04:45:00,
2013-04-15 23:50:00,74.0,66.3,29.67,SSE,150,6.0,7.0,77,0.00,,,0.00,WeatherCatV1.02B3,2013-04-16 04:50:00,
2013-04-15 23:55:00,74.0,66.7,29.67,South,182,5.0,7.0,78,0.00,,,0.00,WeatherCatV1.02B3,2013-04-16 04:55:00,